map of BEL home
Great Circle Mapper logo
BEL - Airport
Location
City:  Belém, Pará, Brazil
Name:Belém International - Val-de-Căes
Old (Alt.):Júlio Cezar Ribeiro
ICAO:SBBE
IATA:BEL

Details
Type:Airport (Aerodrome, Airfield)
Use:Public/Civil, Military, International (customs port of entry)
Latitude:1°22'45"S (-1.379249)
Longitude:48°28'35"W (-48.476291)
Datum:WGS 1984
Elevation:54 ft (16 m)
Variation:20.11°W (WMM2015 magnetic declination)
-0.02° annual change
Runways:2
Longest:9180 × 148 ft (2798 × 45 m), paved

Time
Time Zone:UTC-3
Local Time:

Weather
METAR:SBBE 270500Z 09005KT CAVOK 24/21 Q1013
TAF:SBBE 262200Z 2700/2724 07005KT 9999 SCT030 TN24/2708Z TX31/2717Z
BECMG 2702/2704 09005KT CAVOK
BECMG 2711/2713 9999 FEW017
BECMG 2714/2716 36008KT SCT025
RMK PEN

Related Locations
Nearby:
Farthest:WAJY: 12300 mi / 19795 km
Werur [Werur Airport], PB, ID

Find:

   beyond  
but within

Other Information
Maps:
NOTAMs:
Links:
Sources:

  
flag of Brazil
flag of Pará
  

Sectional Chart

Flight Planning
at skyvector.com

Satellite Image

Google Maps Satellite view

 

Copyright © 2004-2016 Karl L. Swartz. All rights reserved.
The Great Circle Mapper name and logo are trademarks of the Great Circle Mapper.
All other trademarks mentioned herein belong to their respective owners.
Please see credits for attibutions and further copyright information.

  Follow gcmap on Facebook Follow gcmap on Twitter Follow gcmap on Google+ GCmap on LinkedIn

hCard Microformat

Geo Microformat